Sigfox identifier Datetime Temperature Humidity SNR
0038AE10 2018-10-09 08:44:20 21 38 14.6
0038AE10 2018-10-09 07:42:43 20.9 38 15.2
0038AE10 2018-10-09 05:39:33 20.9 38 15.2
0038AE10 2018-10-09 04:37:58 20.9 38 15.5
0038AE10 2018-10-09 01:33:14 20.9 37 16.5
0038AE10 2018-10-09 00:31:42 20.9 37 16.6
0038AE10 2018-10-08 21:26:59 21 37 16.7
0038AE10 2018-10-08 20:25:26 21 37 17.1
0038AE10 2018-10-08 18:22:21 21 36 17.1
0038AE10 2018-10-08 17:20:48 21 36 17.6
0038AE10 2018-10-08 15:17:43 21 36 17.6
0038AE10 2018-10-08 13:14:30 21 36 17.6
0038AE10 2018-10-08 12:12:57 20.9 36 18
0038AE10 2018-10-08 11:11:22 20.7 32 18
0038AE10 2018-10-08 10:09:47 20.7 32 18.3
0038AE10 2018-10-08 09:08:15 20.5 31 18.2
0038AE10 2018-10-08 08:06:37 20.5 31 18
0038AE10 2018-10-08 07:05:04 20.6 32 18.1
0038AE10 2018-10-08 06:03:25 20.6 33 18.2
0038AE10 2018-10-08 05:01:51 20.5 33 18.4
0038AE10 2018-10-08 04:00:11 20.5 34 18.4
0038AE10 2018-10-08 02:58:35 20.6 34 18.4
0038AE10 2018-10-08 01:56:59 20.6 35 18.4
0038AE10 2018-10-08 00:55:21 20.7 35 18.2
0038AE10 2018-10-07 23:53:48 20.7 36 17.9
0038AE10 2018-10-07 22:52:09 20.7 36 17.9
0038AE10 2018-10-07 21:50:34 20.7 37 18.1
0038AE10 2018-10-07 20:49:01 20.7 37 17.6
0038AE10 2018-10-07 19:47:24 20.8 38 18
0038AE10 2018-10-07 18:45:51 20.7 38 18
0038AE10 2018-10-07 17:44:13 20.7 38 18.4
0038AE10 2018-10-07 16:42:39 20.7 38 18.6
0038AE10 2018-10-07 15:41:05 20.7 37 18.4
0038AE10 2018-10-07 14:39:26 20.7 37 18.4
0038AE10 2018-10-07 13:37:52 20.7 38 18.2
0038AE10 2018-10-07 12:36:15 20.7 38 18.6
0038AE10 2018-10-07 11:34:39 20.7 38 18.6
0038AE10 2018-10-07 10:33:03 20.7 38 18.2
0038AE10 2018-10-07 09:31:29 20.7 38 18.3
0038AE10 2018-10-07 08:29:52 20.7 38 17.8
0038AE10 2018-10-07 07:28:17 20.8 38 18.4
0038AE10 2018-10-07 06:26:43 20.8 38 18.3
0038AE10 2018-10-07 05:25:10 20.8 39 18.6
0038AE10 2018-10-07 04:23:36 20.9 39 18.9
0038AE10 2018-10-07 03:22:01 21 39 18.8
0038AE10 2018-10-07 02:20:28 21 39 18.6
0038AE10 2018-10-07 01:18:53 21 39 18.6
0038AE10 2018-10-07 00:17:19 21 40 18.7
0038AE10 2018-10-06 23:15:47 21 40 18.7
0038AE10 2018-10-06 22:14:12 21 40 18.8
0038AE10 2018-10-06 21:12:36 21 40 19.1
0038AE10 2018-10-06 20:11:01 21 40 19
0038AE10 2018-10-06 19:09:23 21 39 19
0038AE10 2018-10-06 18:07:45 21 39 19
0038AE10 2018-10-06 17:06:08 21 40 19.1
0038AE10 2018-10-06 16:04:33 21 40 18.9
0038AE10 2018-10-06 15:02:58 21 40 18.8
0038AE10 2018-10-06 14:01:23 21.1 40 18.8
0038AE10 2018-10-06 12:59:47 21 40 19
0038AE10 2018-10-06 11:58:12 21 40 18.9
0038AE10 2018-10-06 10:56:36 21 40 18.7
0038AE10 2018-10-06 09:55:06 21 39 18.9
0038AE10 2018-10-06 08:53:29 21 40 19.1
0038AE10 2018-10-06 07:51:51 21.2 40 19.3
0038AE10 2018-10-06 05:48:38 21.2 41 19.6
0038AE10 2018-10-06 04:47:00 21.2 41 19.2
0038AE10 2018-10-06 03:45:24 21.2 42 19.5
0038AE10 2018-10-06 02:43:49 21.2 42 19.3
0038AE10 2018-10-06 01:42:13 21.3 42 18.7
0038AE10 2018-10-06 00:40:38 21.4 43 18.7
0038AE10 2018-10-05 23:39:03 21.4 43 18.6
0038AE10 2018-10-05 22:37:25 21.4 43 19
0038AE10 2018-10-05 21:35:49 21.4 44 19.1
0038AE10 2018-10-05 20:34:10 21.6 44 19.8
0038AE10 2018-10-05 19:32:35 21.6 45 20
0038AE10 2018-10-05 18:30:58 21.7 45 19.2
0038AE10 2018-10-05 17:29:21 21.8 46 18.1
0038AE10 2018-10-05 16:27:42 21.9 47 20.6
0038AE10 2018-10-05 15:26:04 22 54 0